Sidney, MT

3:20 AM MST on February 25, 2017 (GMT -0700)
Sidney-Richland Municipal

Weather History for KSDY - April, 2013

Change the Weather History Date:

Saturday, April 6, 2013

  Actual Average Record
Temperature  
Mean Temperature 40 °F -  
Max Temperature 48 °F 58 °F 84 °F (1969)
Min Temperature 32 °F 28 °F 10 °F (1920)
Degree Days  
Heating Degree Days 24    
Moisture  
Dew Point 34 °F    
Average Humidity 78    
Maximum Humidity 87    
Minimum Humidity 70    
Precipitation  
Precipitation 0.00 in - - ()
Sea Level Pressure  
Sea Level Pressure 29.79 in    
Wind  
Wind Speed 10 mph (North)    
Max Wind Speed 16 mph    
Max Gust Speed -    
Visibility 9 miles    
Events      
Averages and records for this station are not official NWS values.
T = Trace of Precipitation, MM = Missing Value Source: NWS Daily Summary

Daily Weather History Graph

Daily Weather History Graph

Search for Another Location

Airport or City:

Trip Planner

Search our weather history database for the weather conditions in past years. The results will help you decide how hot, cold, wet, or windy it might be!

Date:

Astronomy

Apr. 06, 2013 Rise Set
Actual Time 6:24 AM MDT 7:34 PM MDT
Civil Twilight 5:53 AM MDT 8:05 PM MDT
Nautical Twilight 5:15 AM MDT 8:44 PM MDT
Astronomical Twilight 4:34 AM MDT 9:24 PM MDT
Moon 4:25 AM MDT (4/6) 3:52 PM MDT (4/6)
Length of Visible Light 14h 12m
Length of Day
13h 09m
Waning Crescent, 14% of the Moon is Illuminated
Apr 6
Waning Crescent
Apr 10
New
Apr 18
First Quarter
Apr 25
Full
May 2
Last Quarter

Hourly Weather History & Observations

Time (MDT) Temp. Windchill Dew Point Humidity Pressure Visibility Wind Dir Wind Speed Gust Speed Precip Events Conditions
12:15 AM 48.2 °F - 42.8 °F 82% 29.65 in 10.0 mi West 12.7 mph - N/A   Mostly Cloudy
12:35 AM 48.2 °F - 41.0 °F 76% 29.66 in 10.0 mi West 9.2 mph - N/A   Partly Cloudy
12:55 AM 48.2 °F - 39.2 °F 71% 29.67 in 10.0 mi West 11.5 mph - N/A   Scattered Clouds
1:15 AM 48.2 °F - 41.0 °F 76% 29.68 in 10.0 mi West 16.1 mph - N/A   Scattered Clouds
1:35 AM 48.2 °F - 39.2 °F 71% 29.68 in 10.0 mi West 16.1 mph - N/A   Clear
1:55 AM 48.2 °F - 39.2 °F 71% 29.68 in 10.0 mi West 16.1 mph - N/A   Mostly Cloudy
2:15 AM 48.2 °F - 42.8 °F 82% 29.67 in 10.0 mi West 15.0 mph - N/A   Overcast
2:35 AM 48.2 °F - 42.8 °F 82% 29.67 in 10.0 mi West 12.7 mph - N/A   Overcast
2:55 AM 46.4 °F 40.7 °F 41.0 °F 81% 29.69 in 10.0 mi NW 12.7 mph - N/A   Mostly Cloudy
3:35 AM 44.6 °F 38.4 °F 39.2 °F 81% 29.69 in 10.0 mi NW 12.7 mph - N/A   Mostly Cloudy
3:55 AM 44.6 °F 38.4 °F 37.4 °F 76% 29.69 in 10.0 mi NW 12.7 mph - N/A   Mostly Cloudy
4:15 AM 44.6 °F 38.4 °F 37.4 °F 76% 29.71 in 10.0 mi NW 12.7 mph - N/A   Scattered Clouds
4:35 AM 42.8 °F 37.0 °F 37.4 °F 81% 29.71 in 10.0 mi NW 10.4 mph - N/A   Mostly Cloudy
4:55 AM 42.8 °F 36.6 °F 37.4 °F 81% 29.73 in 10.0 mi WNW 11.5 mph - N/A   Mostly Cloudy
5:15 AM 42.8 °F 38.0 °F 37.4 °F 81% 29.73 in 10.0 mi NNW 8.1 mph - N/A   Overcast
5:55 AM 39.2 °F 33.0 °F 35.6 °F 87% 29.74 in 10.0 mi NNW 9.2 mph - N/A   Clear
6:15 AM 37.4 °F 31.4 °F 33.8 °F 87% 29.74 in 10.0 mi NNW 8.1 mph - N/A   Clear
6:35 AM 37.4 °F 32.8 °F 33.8 °F 87% 29.75 in 10.0 mi North 5.8 mph - N/A   Clear
6:55 AM 35.6 °F 29.2 °F 32.0 °F 87% 29.76 in 10.0 mi NNW 8.1 mph - N/A   Clear
7:55 AM 37.4 °F 28.9 °F 32.0 °F 81% 29.79 in 10.0 mi North 13.8 mph - N/A   Mostly Cloudy
8:15 AM 35.6 °F 26.6 °F 30.2 °F 81% 29.79 in 10.0 mi North 13.8 mph - N/A   Overcast
8:35 AM 35.6 °F 27.5 °F 32.0 °F 87% 29.80 in 10.0 mi North 11.5 mph - N/A   Overcast
8:55 AM 35.6 °F 27.1 °F 30.2 °F 81% 29.81 in 10.0 mi North 12.7 mph - N/A   Overcast
9:15 AM 35.6 °F 28.0 °F 30.2 °F 81% 29.81 in 9.0 mi North 10.4 mph - N/A   Overcast
9:35 AM 35.6 °F 28.6 °F 32.0 °F 87% 29.82 in 10.0 mi NNW 9.2 mph - N/A   Overcast
9:55 AM 35.6 °F 29.2 °F 32.0 °F 87% 29.83 in 10.0 mi NNW 8.1 mph - N/A   Overcast
10:15 AM 37.4 °F 30.3 °F 32.0 °F 81% 29.82 in 10.0 mi North 10.4 mph - N/A   Overcast
10:35 AM 37.4 °F 30.8 °F 30.2 °F 75% 29.83 in 10.0 mi North 9.2 mph - N/A   Overcast
10:55 AM 35.6 °F 29.9 °F 30.2 °F 81% 29.85 in 10.0 mi NNW 6.9 mph - N/A   Overcast
11:15 AM 35.6 °F 28.6 °F 30.2 °F 81% 29.85 in 9.0 mi NNW 9.2 mph - N/A   Overcast
11:55 AM 37.4 °F 30.8 °F 30.2 °F 75% 29.84 in 10.0 mi North 9.2 mph - N/A   Overcast
12:35 PM 37.4 °F 32.1 °F 30.2 °F 75% 29.84 in 10.0 mi North 6.9 mph - N/A   Overcast
12:55 PM 39.2 °F 35.0 °F 30.2 °F 70% 29.85 in 10.0 mi NNW 5.8 mph - N/A   Overcast
1:15 PM 39.2 °F 33.6 °F 32.0 °F 75% 29.85 in 10.0 mi NNW 8.1 mph - N/A   Overcast
1:35 PM 39.2 °F 35.0 °F 32.0 °F 75% 29.85 in 10.0 mi NNW 5.8 mph - N/A   Overcast
1:55 PM 39.2 °F 35.0 °F 32.0 °F 75% 29.85 in 10.0 mi NNW 5.8 mph - N/A   Overcast
2:15 PM 39.2 °F 35.0 °F 32.0 °F 75% 29.85 in 10.0 mi WNW 5.8 mph - N/A   Overcast
2:35 PM 39.2 °F 35.0 °F 32.0 °F 75% 29.85 in 10.0 mi NNE 5.8 mph - N/A   Overcast
2:55 PM 39.2 °F 37.0 °F 32.0 °F 75% 29.84 in 10.0 mi West 3.5 mph - N/A   Overcast
3:35 PM 41.0 °F 39.0 °F 33.8 °F 76% 29.84 in 10.0 mi North 3.5 mph - N/A   Overcast
3:55 PM 41.0 °F 38.0 °F 32.0 °F 70% 29.84 in 10.0 mi North 4.6 mph - N/A   Overcast
4:15 PM 42.8 °F 38.0 °F 33.8 °F 70% 29.84 in 10.0 mi NE 8.1 mph - N/A   Overcast
4:35 PM 42.8 °F 38.0 °F 33.8 °F 70% 29.83 in 10.0 mi ENE 8.1 mph - N/A   Overcast
5:15 PM 41.0 °F 36.4 °F 33.8 °F 76% 29.84 in 10.0 mi NE 6.9 mph - N/A   Overcast
5:35 PM 41.0 °F 35.2 °F 33.8 °F 76% 29.85 in 9.0 mi ENE 9.2 mph - N/A   Overcast
5:55 PM 41.0 °F 38.0 °F 33.8 °F 76% 29.85 in 8.0 mi NNE 4.6 mph - N/A   Overcast
6:15 PM 41.0 °F 38.0 °F 33.8 °F 76% 29.85 in 8.0 mi NNE 4.6 mph - N/A   Overcast
6:35 PM 41.0 °F 37.1 °F 33.8 °F 76% 29.85 in 8.0 mi NE 5.8 mph - N/A   Overcast
7:35 PM 39.2 °F 35.0 °F 32.0 °F 75% 29.83 in 9.0 mi ENE 5.8 mph - N/A   Overcast
7:55 PM 39.2 °F 34.2 °F 33.8 °F 81% 29.83 in 8.0 mi ENE 6.9 mph - N/A   Overcast
8:15 PM 39.2 °F 35.0 °F 32.0 °F 75% 29.83 in 8.0 mi ENE 5.8 mph - N/A   Overcast
8:35 PM 39.2 °F 35.9 °F 33.8 °F 81% 29.84 in 8.0 mi NNE 4.6 mph - N/A   Overcast
8:55 PM 39.2 °F 35.9 °F 33.8 °F 81% 29.85 in 7.0 mi NE 4.6 mph - N/A   Overcast
9:15 PM 39.2 °F 35.0 °F 32.0 °F 75% 29.85 in 7.0 mi NE 5.8 mph - N/A   Overcast
9:55 PM 39.2 °F 35.9 °F 32.0 °F 75% 29.86 in 8.0 mi NE 4.6 mph - N/A   Overcast
10:15 PM 37.4 °F 33.8 °F 30.2 °F 75% 29.85 in 7.0 mi East 4.6 mph - N/A   Mostly Cloudy
10:35 PM 35.6 °F 30.7 °F 30.2 °F 81% 29.84 in 7.0 mi East 5.8 mph - N/A   Mostly Cloudy
11:15 PM 33.8 °F 28.6 °F 28.4 °F 81% 29.84 in 5.0 mi North 5.8 mph - N/A   Clear
11:35 PM 33.8 °F 28.6 °F 28.4 °F 81% 29.84 in 5.0 mi NNE 5.8 mph - N/A   Clear
11:55 PM 32.0 °F 28.7 °F 28.4 °F 87% 29.84 in 5.0 mi NNE 3.5 mph - N/A   Clear